Location: Napier
(39.4830°S, 176.9170°E)
Time: 18:27:49
(UTC+13:00)

Cosmos 2322 Rocket - Pass Details

Date: 24 January 2019
Orbit: 834 x 849 km, 71.0° (Epoch: 18 October)

Event Time Altitude Azimuth Distance (km) Brightness Sun altitude
Rises 22:56:14 0° 307° (NW) 3,394 5.4 -21.9°
Reaches altitude 10° 22:59:00 10° 295° (WNW) 2,469 4.7 -22.2°
Maximum altitude 23:03:51 28° 237° (WSW) 1,540 4.2 -22.7°
Drops below altitude 10° 23:08:46 10° 178° (S) 2,501 5.3 -23.3°
Sets 23:11:36 0° 166° (SSE) 3,445 6.0 -23.6°
